Weather in Oktyabrskiy

Russia / Kostroma Oblast     58°19′04″N   44°19′34″E
temp.,
°C
wind,
m/s
gust,
m/s
humid.,
%
clouds,
%
prec.,
mm/h
press.,
hPa
HPBL,
m
18 may, tue
tue1800:00+15e3985100 0.0 1017179
03:00+14ese31092100 0.5 1018229
06:00+16ese3118571 0.3 1017327
09:00+22ese585967 0.3 1017640
12:00+26se5646100 0.0 10171099
15:00+27ese564366 0.0 10161447
18:00+25ese4958100 0.0 1015569
21:00+20ese31078100 0.1 1015278
19 may, wed
wed1900:00+17ese4148965 0.7 1015330
03:00+15ese4128311 0.3 1017307
06:00+17ese412728 0.0 1016354
09:00+23se58525 0.0 1016662
12:00+26se684344 0.0 10161300
15:00+27se68410 0.0 10151618
18:00+24ese510530 0.0 1015868
21:00+19ese413630 0.0 1015401
20 may, thu
thu2000:00+16ese413760 0.0 1015382
03:00+15ese312810 0.0 1015347
06:00+18se413740 0.0 1014413
09:00+23se59522 0.0 1013889
12:00+26se69350 0.0 10122067
15:00+27se69350 0.0 10112386
18:00+24sse611530 0.0 10111467
21:00+19se412697 0.1 1011549
21 may, fri
fri2100:00+16sse311830 0.4 1011363
03:00+13se25962 0.4 1011118
06:00+16sse24865 0.0 1011263
09:00+19ssw3572100 1.1 1010823
12:00+20sse3460100 1.1 10091318
15:00+19s3574100 7.4 1009708
18:00+17sw2587100 5.5 1008236
21:00+14w269477 7.1 1009131
22 may, sat
sat2200:00+13wnw499597 3.0 1011431
03:00+11wnw41097100 3.0 1014437
06:00+12wnw3792100 0.0 1016305
09:00+16w3567100 0.0 1017704
12:00+18w354248 0.0 10191993
15:00+20w463799 0.0 10192459
18:00+18w2454100 0.0 1019168
21:00+12wnw1174100 0.0 102011